Location: Michelbach Markt
(48.1000°N, 15.7500°E)
Time: 12:27:49
(UTC+01:00)

ISS - Pass Details

Date: 05 December 2021
Orbit: 413 x 422 km, 51.6° (Epoch: 19 January)

Event Time Altitude Azimuth Distance (km) Brightness Sun altitude
Rises 18:43:13 0° 287° (WNW) 2,380 1.1 -25.6°
Reaches altitude 10° 18:45:41 10° 270° (W) 1,509 0.1 -26.0°
Enters shadow 18:48:11 20° 222° (SW) 1,048 -1.3 -26.4°
